Location: ?
(35.7626°N, 139.6682°E)
Time: 10:10:11
(UTC+00:00)

Daily predictions for brighter satellites

Satellite Brightness Start Highest point End
(mag) Time Altitude Azimuth Time Altitude Azimuth Time Altitude Azimuth
USA 267 4.0 18:04:12 10° NE 18:09:14 48° E 18:09:14 48° E
ATLAS 3B R/B 3.8 18:09:37 39° SE 18:11:18 44° ESE 18:18:32 10° NE
SJ 16-02 3.3 18:39:41 25° E 18:39:41 25° E 18:42:40 10° SE
CZ-3 R/B 3.4 18:43:42 34° WSW 18:52:12 56° S 18:59:31 10° ESE
Cosmos 1190 Rocket 3.9 19:04:35 79° NE 19:04:47 81° ENE 19:09:58 10° SSE
Cosmos 1869 4.1 19:16:20 41° ESE 19:16:20 41° ESE 19:19:03 10° SSE
Cosmos 1954 Rocket 3.9 19:16:13 49° NNW 19:17:39 85° ENE 19:22:46 10° SSE
Cosmos 2233 Rocket 3.8 19:14:26 10° N 19:20:41 74° W 19:26:52 10° S
Cosmos 2346 Rocket 4.3 19:14:49 10° S 19:20:56 82° W 19:27:03 10° N
Cosmos 1725 Rocket 4.3 19:22:40 44° WSW 19:22:40 44° WSW 19:27:38 10° SSW
Cosmos 1447 Rocket 4.4 19:15:34 10° S 19:21:48 85° W 19:28:09 10° N
Cosmos 2061 Rocket 3.8 19:17:14 10° N 19:23:26 79° W 19:29:37 10° S
SL-16 R/B 4.2 19:18:38 10° SSW 19:20:03 16° SSW 19:20:03 16° SSW
SL-16 R/B 2.2 19:24:45 54° WNW 19:24:55 54° WNW 19:30:30 10° NNE
Chandra Rocket (1) 3.6 19:29:04 29° SW 19:30:56 39° S 19:42:28 10° ESE
Cosmos 1812 3.1 19:32:30 44° ESE 19:32:30 44° ESE 19:34:59 10° SSE
SJ-11-01 4.2 19:27:32 10° NNE 19:32:15 90° E 19:36:57 10° SSW
Atlas 2A Centaur Rocket 3.5 19:32:33 23° SSW 19:33:24 24° SSW 19:35:49 10° SE
Cosmos 1378 Rocket 3.5 19:31:30 10° S 19:35:45 78° E 19:40:01 10° N
IRS-1D 3.5 19:31:18 10° NNE 19:36:14 77° ESE 19:41:10 10° S
USA 229 DEB 3.6 19:41:03 36° W 19:42:48 45° NW 19:48:56 10° NNE
USA 229 3.6 19:41:13 35° W 19:43:02 45° NW 19:49:09 10° NNE
Cosmos 1110 Rocket 3.9 19:39:42 10° SSW 19:44:57 74° WNW 19:50:16 10° NNE
USA 267 3.7 19:47:27 10° NNE 19:53:25 39° NW 19:56:36 25° W
Cosmos 2242 Rocket 4.1 19:51:57 10° SW 19:55:58 35° WNW 20:00:02 10° NNW
OAO 1 4.5 19:56:07 28° W 19:59:06 85° S 20:04:34 10° E
ATLAS 3B R/B 3.4 19:57:00 18° WSW 20:02:06 40° NW 20:09:23 10° NNE
CENTAUR R/B 3.6 19:57:20 10° NNW 20:06:05 75° ENE 20:15:35 10° SE
Lacrosse 4 Rocket 4.0 20:06:49 10° NNE 20:08:40 13° NE 20:10:30 10° E
COSMO-SKYMED 1 2.7 20:05:47 10° SSE 20:09:51 71° ENE 20:13:58 10° N
SWARM A 4.3 20:09:08 10° SSW 20:12:21 51° W 20:15:35 10° N
Aureole 3 Rocket 4.4 20:06:43 10° NNW 20:12:44 59° W 20:20:53 10° S
Cosmos 1943 3.1 20:07:13 10° SSW 20:12:45 62° WNW 20:18:18 10° NNE
Cosmos 1818 3.5 20:07:21 10° SSW 20:12:45 84° WNW 20:18:13 10° NNE
Meteor 1-11 4.2 20:08:46 10° SSW 20:14:35 71° W 20:20:26 10° N
Cosmos 2297 3.6 20:11:15 10° NNW 20:16:54 78° WSW 20:22:29 10° SSE
Cosmos 371 Rocket 4.2 20:14:22 18° NW 20:16:55 28° W 20:21:00 10° SSW
SJ 16-02 2.5 20:16:18 20° W 20:16:58 21° W 20:20:08 10° SW
Cosmos 2369 Rocket 2.2 20:11:30 10° NNW 20:17:12 75° WSW 20:22:53 10° SSE
Cosmos 1603 4.1 20:13:20 10° S 20:19:01 69° ESE 20:24:44 10° NNE
Cosmos 1452 Rocket 3.7 20:16:38 10° SW 20:21:37 45° WNW 20:26:38 10° N
NOAA 12 4.4 20:19:46 10° N 20:24:47 44° WNW 20:29:47 10° SW
Hubble Space Telescope 3.0 20:23:04 10° SSW 20:25:42 18° SSE 20:28:20 10° ESE
USA 234 3.8 20:20:06 10° ESE 20:26:30 58° NE 20:32:53 10° NW
Lacrosse 5 rocket 3.0 20:24:41 10° N 20:27:14 20° NE 20:29:46 10° E
Meteor 2-17 Rocket 4.5 20:25:46 10° SSW 20:31:43 59° W 20:37:44 10° N
Cosmos 1850 Rocket 3.9 20:26:36 10° NNW 20:31:45 73° WSW 20:36:53 10° S
Cosmos 1025 Rocket 3.3 20:29:15 10° SSW 20:33:23 44° W 20:37:34 10° N
Helios 1A Rocket 2.8 20:30:15 10° S 20:33:25 40° W 20:36:37 10° NNW
Cosmos 1484 Rocket 2.5 20:32:59 10° N 20:36:28 59° WNW 20:39:52 10° SSW
SKYMED 2 4.2 20:33:59 10° SSW 20:37:57 35° W 20:41:56 10° NNW
Okean 2 Rocket 3.1 20:34:51 10° NNW 20:39:07 55° W 20:43:23 10° S
H-2A R/B 3.8 20:41:10 10° WSW 20:43:55 27° S 20:51:50 10° ESE
Cosmos 332 Rocket 3.9 20:41:58 10° NNW 20:46:39 56° WSW 20:51:16 10° S
Centaur D AC-28 3.9 20:33:35 10° W 20:48:09 37° SSW 20:52:31 10° SE
Tsikada Rocket 4.1 20:48:34 10° S 20:54:53 79° W 21:01:18 10° N
CBERS-1 4.0 20:51:51 10° N 20:56:54 62° WNW 21:01:54 10° SSW
